TimeCST,TemperatureF,Dew PointF,Humidity,Sea Level PressureIn,VisibilityMPH,Wind Direction,Wind SpeedMPH,Gust SpeedMPH,PrecipitationIn,Events,Conditions,WindDirDegrees,DateUTC
12:00 AM,62.6,60.8,94,30.30,6.2,NNE,9.2,-,N/A,,Mostly Cloudy,20,2013-08-29 06:00:00
1:00 AM,62.6,60.8,94,30.27,6.2,North,6.9,-,N/A,,Mostly Cloudy,360,2013-08-29 07:00:00
2:00 AM,62.6,60.8,94,30.27,6.2,NNE,6.9,-,N/A,,Mostly Cloudy,20,2013-08-29 08:00:00
3:00 AM,62.6,60.8,94,30.27,6.2,North,9.2,-,N/A,,Mostly Cloudy,10,2013-08-29 09:00:00
4:00 AM,62.6,60.8,94,30.24,6.2,NNE,9.2,-,N/A,,Mostly Cloudy,20,2013-08-29 10:00:00
5:00 AM,62.6,60.8,94,30.27,6.2,North,4.6,-,N/A,,Mostly Cloudy,360,2013-08-29 11:00:00
6:00 AM,62,60,92,29.97,25,NNE,9.2,,,,Overcast,20,2013-08-29 12:00:00
6:00 AM,62.6,60.8,94,30.27,6.2,NNE,9.2,-,N/A,,Mostly Cloudy,20,2013-08-29 12:00:00
7:00 AM,64.4,60.8,88,30.27,6.2,NNE,6.9,-,N/A,,Scattered Clouds,20,2013-08-29 13:00:00
8:00 AM,68.0,60.8,78,30.30,6.2,North,6.9,-,N/A,,Partly Cloudy,360,2013-08-29 14:00:00
9:00 AM,69.8,60.8,73,30.30,6.2,North,9.2,-,N/A,,Partly Cloudy,360,2013-08-29 15:00:00
10:00 AM,71.6,60.8,69,30.30,6.2,North,6.9,-,N/A,,Partly Cloudy,360,2013-08-29 16:00:00
11:00 AM,73.4,60.8,65,30.30,6.2,North,13.8,-,N/A,,Partly Cloudy,360,2013-08-29 17:00:00
12:00 PM,75,62,56,29.93,25,North,9.2,,,,Partly Cloudy,0,2013-08-29 18:00:00
12:00 PM,75.2,62.6,65,30.27,6.2,North,9.2,-,N/A,,Partly Cloudy,360,2013-08-29 18:00:00
1:00 PM,75.2,62.6,65,30.27,6.2,North,6.9,-,N/A,,Partly Cloudy,360,2013-08-29 19:00:00
2:00 PM,75.2,60.8,61,30.24,6.2,NNE,4.6,-,N/A,,Partly Cloudy,20,2013-08-29 20:00:00
2:25 PM,-9999,-9999,N/A,-9999,6.2,South,6.9,-,N/A,Thunderstorm,Thunderstorm,180,2013-08-29 20:25:00
3:00 PM,71.6,64.4,78,30.21,6.2,South,9.2,-,N/A,Rain-Thunderstorm,Light Thunderstorms and Rain,180,2013-08-29 21:00:00
4:00 PM,68.0,62.6,83,3.02,6.2,Calm,Calm,-,N/A,,Light Drizzle,0,2013-08-29 22:00:00
4:12 PM,-9999,-9999,N/A,-9999,6.2,South,6.9,-,N/A,,Mostly Cloudy,180,2013-08-29 22:12:00
5:00 PM,68.0,62.6,83,30.21,6.2,South,6.9,-,N/A,,Mostly Cloudy,180,2013-08-29 23:00:00
6:00 PM,67,62,79,29.95,25,South,6.9,,,,Partly Cloudy,170,2013-08-30 00:00:00
6:00 PM,68.0,62.6,83,30.24,6.2,South,6.9,-,N/A,,Mostly Cloudy,170,2013-08-30 00:00:00
7:00 PM,66.2,62.6,88,30.27,6.2,Calm,Calm,-,N/A,,Scattered Clouds,0,2013-08-30 01:00:00
8:00 PM,66.2,62.6,88,30.30,6.2,Calm,Calm,-,N/A,,Scattered Clouds,0,2013-08-30 02:00:00
9:00 PM,66.2,62.6,88,30.30,6.2,Calm,Calm,-,N/A,,Mostly Cloudy,0,2013-08-30 03:00:00
10:00 PM,66.2,62.6,88,30.33,4.3,Calm,Calm,-,N/A,,Mostly Cloudy,0,2013-08-30 04:00:00
11:00 PM,66.2,62.6,88,30.33,5.0,NNE,6.9,-,N/A,,Mostly Cloudy,20,2013-08-30 05:00:00